www.pogodaiklimat.ru

Погода и климат >> Архив погоды >> Россия >> Якутия >> Килиер


ПОГОДА в Килиере

  • Прогноз погоды в Килиере
  • Монитор погоды в Килиере

АРХИВ ПОГОДЫ в Килиере

Время (UTC), дата Ветер
(напр.,м/с)
 
Видим.   Явления Облачность Т
(С)
Тd
(С)
f
(%)
Тe
(С)
Тes
(С)
Комфортность P
(гПа)
Po
(гПа)
Тmin
(С)
Tmax
(С)
R
(мм)
R24
(мм)
S
(см)
00 9.07 З 1 50 км {туман} 10/0
[Ac trans Cs]
+18.8 +18.5 98 +21 +27 комфорт 1005.5 976.6 +11.3
03 9.07 З 1 50 км 9/4 600 м
[Cb calv Ac trans Ci fib]
+24.1 +18.8 72 +29 +34 душно 1004.6 976.3
06 9.07 СЗ 1 50 км 10/6 600 м
[Cb cap Ci fib]
+24.3 +19.0 72 +29 +34 душно 1003.8 975.5
09 9.07 СЗ 2 50 км 6/4 600 м
[Cb cap Ci sp]
+27.5 +19.0 60 +33 +35 очень
душно
1002.6 974.7
12 9.07 З 1 50 км 6/3 600 м
[Cb cap Ci fib]
+22.5 +18.7 79 +28 +28 душно 1003.8 975.4 +28.1
15 9.07 штиль 0 50 км 4/3 600 м
[Cb cap Ci fib]
+16.1 +16.1 100 +16 +16 1005.2 976.1
18 9.07 штиль 0 50 км 10/0
[Ci fib]
+11.7 +11.7 100 +11 +11 1006.2 976.6
21 9.07 штиль 0 50 км 4/0
[Ci sp]
+10.3 +10.3 100 +9 +11 1007.4 977.6
00 10.07 З 1 50 км 4/0
[Ci sp]
+20.5 +18.8 90 +25 +33 комфорт 1007.1 978.4 +10.0
03 10.07 С 2 50 км 10/1 1000 м
[Cu med, cong Cs]
+26.8 +19.1 63 +32 +41 очень
душно
1006.5 978.4
06 10.07 С 3 50 км 10/4 1000 м
[Cu med, cong Ci fib]
+28.4 +15.6 46 +31 +36 душно 1005.9 977.9
09 10.07 С 2 50 км 10/4 600 м
[Cb cap Cs]
+27.5 +14.4 45 +30 +32 жарко 1006.2 978.2
12 10.07 штиль 0 50 км 10/0
[Ac trans Cs]
+22.3 +17.5 74 +27 +27 душно 1008.0 979.4 +29.0
15 10.07 С 2 50 км 10/4 600 м
[Cb cap Ac trans Cs]
+18.8 +15.2 80 +20 +20 1010.3 981.3
18 10.07 З 2 50 км {ливн. осадки} 10/10 600 м
[Cb cap]
+16.7 +16.4 98 +17 +17 1011.6 982.4
21 10.07 СВ 2 50 км {ливн. осадки} 10/10 600 м
[Cb cap]
+15.8 +15.5 98 +16 +16 1012.3 982.9
00 11.07 СВ 1 50 км {ливн. осадки} 10/4 600 м
[Cb cap Ac trans Ci fib]
+17.5 +17.0 97 +19 +21 1012.6 983.4 +15.8 7
03 11.07 СВ 1 50 км 10/4 1000 м
[Cu Sc Ac trans Cs]
+20.7 +19.1 91 +26 +31 душно 1012.4 983.5
06 11.07 В 2 50 км 10/5 1000 м
[Cu Sc Ac trans Ci fib]
+22.7 +18.1 75 +28 +31 душно 1011.8 983.1
09 11.07 СВ 1 50 км 10/3 1000 м
[Cu Sc Ci sp]
+25.5 +17.4 61 +30 +32 душно 1010.1 981.8
12 11.07 штиль 0 50 км 6/0
[Cs]
+23.0 +18.6 76 +29 +29 очень
душно
1010.1 981.5 +26.0
15 11.07 штиль 0 10 км дымка 6/1 1000 м
[Sc Ci fib]
+15.6 +15.6 100 +15 +15 1010.8 981.5
18 11.07 штиль 0 500 м туман ?/? +10.5 +10.5 100 +10 +10 1011.1 981.3
21 11.07 штиль 0 500 м туман ?/? +11.5 +11.5 100 +11 +11 1011.0 981.3
00 12.07 СВ 1 50 км {туман} 6/0
[Cs]
+19.3 +18.7 96 +23 +29 комфорт 1010.0 981.0 +10.0
03 12.07 В 1 50 км 10/0
[Ci fib]
+26.9 +19.2 63 +32 +44 очень
душно
1008.2 980.0
06 12.07 Ю 2 50 км 10/3 1000 м
[Cu med, cong Ci fib]
+29.7 +16.1 44 +33 +39 душно 1006.2 978.4
09 12.07 Ю 2 50 км 10/1 1000 м
[Cu med, cong Cs]
+29.6 +15.1 41 +32 +35 душно 1005.6 977.8
12 12.07 ЮВ 1 50 км 10/3 1000 м
[Cu Sc Ci fib]
+22.9 +19.1 79 +29 +29 очень
душно
1006.6 978.1 +30.1
15 12.07 штиль 0 50 км 3/0
[Ci sp]
+15.4 +15.1 98 +15 +15 1007.8 978.5
18 12.07 штиль 0 50 км 4/3 1000 м
[Cu Sc Ci fib]
+12.7 +12.7 100 +12 +12 1008.4 978.9
21 12.07 З 2 20 км мгла 10/10 600 м
[Sc]
+15.6 +15.3 98 +15 +15 1009.0 979.7
00 13.07 З 5
{10}
50 км 10/9 600 м
[Cb cap Ci fib]
+18.8 +17.7 93 +20 +20 1009.2 980.2 +12.6
03 13.07 З 4 50 км 10/9 600 м
[Cb cap Ci fib]
+19.2 +17.4 89 +21 +22 комфорт 1009.2 980.2
06 13.07 СЗ 4 50 км 10/9 600 м
[Cb cap Ci fib]
+19.0 +17.7 92 +21 +21 комфорт 1009.2 980.2
09 13.07 С 2 20 км слаб. ливневой дождь 10/10 600 м
[Cb cap]
+16.6 +16.6 100 +17 +17 1009.0 979.8
12 13.07 штиль 0 50 км в посл. час ливневой дождь 10/9 600 м
[Cb cap Ci fib]
+17.0 +17.0 100 +17 +17 1009.2 980.0 +19.4 10
15 13.07 штиль 0 10 км дымка 10/9 600 м
[Cb cap Ci fib]
+15.2 +15.2 100 +15 +15 1009.4 980.0
18 13.07 штиль 0 50 км 10/10 600 м
[Cb cap]
+14.4 +14.4 100 +14 +14 1009.5 980.0
21 13.07 штиль 0 20 км дымка 10/10 600 м
[Sc]
+14.4 +14.4 100 +14 +14 1009.3 979.8
00 14.07 С 2 50 км 10/10 600 м
[Cb cap]
+16.3 +16.3 100 +16 +16 1008.5 979.3 +14.4
03 14.07 С 2 50 км 10/9 600 м
[Sc As op]
+17.9 +17.9 100 +18 +19 1008.7 979.6
06 14.07 С 2 50 км 10/8 600 м
[Cb cap Ac trans Ci fib]
+21.2 +19.5 90 +26 +27 душно 1008.1 979.4
09 14.07 С 2 50 км 10/8 600 м
[Cb cap Ac trans Ci fib]
+21.8 +19.0 84 +27 +27 душно 1007.7 979.1
12 14.07 штиль 0 50 км 6/3 1000 м
[Sc Ac trans Ci fib]
+21.2 +19.3 89 +26 +26 душно 1008.4 979.6 +22.2
15 14.07 штиль 0 50 км 6/4 600 м
[Cb cap Ci fib]
+15.8 +15.6 99 +16 +16 1009.0 979.7
18 14.07 штиль 0 50 км 10/8 600 м
[Cb cap Ci fib]
+14.2 +14.2 100 +14 +14 1009.7 980.2
21 14.07 штиль 0 500 м туман ?/? +13.7 +13.7 100 +13 +13 1010.1 980.6
00 15.07 С 1 50 км {туман} 10/1 1000 м
[Cu hum Cs]
+19.1 +18.8 98 +22 +27 комфорт 1010.2 981.2 +13.7
03 15.07 В 3 50 км 10/4 1000 м
[Cu Sc Cs]
+24.5 +21.0 81 +31 +36 очень
душно
1010.0 981.6
06 15.07 В 4 50 км 10/4 1000 м
[Cu Sc Ci fib]
+26.3 +18.1 61 +31 +34 душно 1009.9 981.6
09 15.07 С 4 50 км 10/1 1000 м
[Cu med, cong Cs]
+25.2 +14.7 52 +28 +30 жарко 1009.4 981.0
12 15.07 С 3 50 км 10/0
[Ci fib]
+24.7 +15.9 58 +28 +28 душно 1010.8 982.4 +27.0
15 15.07 штиль 0 50 км 10/0
[Cc]
+14.8 +13.9 94 +14 +14 1012.8 983.3
18 15.07 штиль 0 50 км 10/0
[As trans Ci fib]
+11.2 +11.2 100 +10 +10 1013.8 983.9
21 15.07 штиль 0 50 км 10/0
[Ac trans Cs]
+10.3 +10.3 100 +9 +10 1014.2 984.2

 

Местоположение метеостанции Килиер (Якутия, Россия): широта 60.95 долгота 119.30 высота над уровнем моря 249 м.

В архиве по умолчанию представлена погода в Килиере за последнюю неделю. Архивные данные за месяц целиком и за предыдущие месяцы, начиная с января 2011 года, Вы можете получить, выбрав интересующий диапазон дат из раскрывающегося списка и нажав кнопку "Ввод!".


*Определитесь, кто Вы:
робот инопланетянин человек

Внимание! Время в таблицах - всемирное. Для получения местного времени необходимо прибавить поправку, которая равна 9 ч.

Смотрите также архив погоды в соседних городах и на ближайших метеорологических станциях:

Погода в Олекминске (Якутия, Россия) (86 км)
Погода в Маче (Якутия, Россия) (147 км)
Погода в Сунтаре (Якутия, Россия) (163 км)
Погода в Тяне (Якутия, Россия) (219 км)
Погода в Крестяхе (Якутия, Россия) (224 км)
Погода в Ленске (Якутия, Россия) (245 км)
Погода в Джикимде (Якутия, Россия) (253 км)
Погода в Перевозе (Иркутская область, Россия) (255 км)
Погода в Дорожном (Якутия, Россия) (262 км)
Погода в Нюрбе (Якутия, Россия) (264 км)

Пояснения к столбцам:

Ветер - указаны скорость ветра в м/с - средняя за 10 мин, порывы в срок и между сроками (в фигурных скобках) и направление, откуда дует ветер: С - северный, СВ - северо-восточный, В - восточный, ЮВ - юго-восточный, Ю - южный, ЮЗ - юго-западный, З - западный, СЗ - северо-западный.
Видимость - горизонтальная дальность видимости в метрах или километрах. При видимости от 1 до 10 км при отсутствии осадков обычно наблюдается дымка, при ухудшении видимости до 1 км и менее - туман. В сухую погоду видимость может ухудшаться дымом, пылью или мглою.
Явления - указаны атмосферные явления, наблюдавшиеся в срок или в последний час перед сроком; фигурными скобками обозначены явления, наблюдавшиеся между сроками (за 1-3 часа до срока); квадратными скобками обозначены град или гололедные отложения с указанием их диаметра в мм.
Облачность - указаны через наклонную черту общая и нижняя облачность в баллах и высота нижней границы облаков в метрах; квадратными скобками обозначены формы облаков: Ci - перистые, Cs - перисто-слоистые, Cc - перисто-кучевые, Ac - высококучевые, As - высокослоистые, Sc - слоисто-кучевые, Ns - слоисто-дождевые, Cu - кучевые, Cb - кучево-дождевые. Подробнее классификацию облаков см. в Атласе облаков (PDF).
T - Температура воздуха - температура, измеренная на высоте 2 м над землей.
Td - Температура точки росы - температура, при понижении до которой содержащийся в воздухе водяной пар достигнет насыщения.
f - Относительная влажность воздуха - влажноcть воздуха, измеренная на высоте 2 м над землей.
Te - Эффективная температура - температура, которую ощущает одетый по сезону человек в тени. Характеристика душности погоды. При расчете учитывается влияние влажности воздуха и скорости ветра на теплоощущения человека.
Tes - Эффективная температура на солнце - температура, которую ощущает человек, с поправкой на солнечный нагрев. Характеристика знойности погоды. Зависит от высоты солнца над горизонтом, облачности и скорости ветра. Ночью, в пасмурную погоду, а также при ветре 12 м/с и более поправка равна нулю.
P - Атмосферное давление - приведенное к уровню моря атмосферное давление.
Po - Атмосферное давление - измеренное на уровне метеостанции атмосферное давление.
Tmin - Минимальная температура - минимум температуры воздуха на высоте 2 м над землей.
Tmax - Максимальная температура - максимум температуры воздуха на высоте 2 м над землей.
R - Количество осадков - Количество выпавших осадков за период времени, мм. При наведении курсора мыши на число - период времени, за который выпало указанное количество осадков.
R24 - Количество осадков - Количество выпавших осадков за 24 часа, мм.
S - Снежный покров - Высота снежного покрова, см. При наведении курсора мыши на число - состояние снежного покрова и степень покрытия местности в баллах.